STARLINK-3749, 52313

Orbit data source: Space-Track

STARLINK-3749, 52313 is a payload satellite owned by SpaceX/Seattle (US) in LEO that was launched on Thu, 21 Apr 2022 UTC via an FALCON 9 launch vehicle from the Air Force Eastern Test Range (AFETR). Payload-class satellites include a variety of spacecraft equipped with specific instruments for various scientific and technological missions. These include communications satellites like Starlink; space stations such as the ISS; scientific satellites like the Hubble; Earth observation satellites from companies like Planet Labs, Umbra, and HawkEye 360; GPS; miniature CubeSats for education and research; and military/defense satellites.

Loading next visibility...
Identifier
52313, 2022-041BE
Orbit
LEO
Country
Flag of USUS
Related business
Manufacturer
SpaceX/Seattle
Mission
Operational Commercial Communications
Bus & Motor
STARLINK, Unknown motor
Mass
297 kg wet, ~275 kg dry
Launch date (UTC)
2022-04-21 (4 years ago)
Launch vehicle
FALCON 9
Launch site
Air Force Eastern Test Range (AFETR)
Object type
Payload
Rocket body
Debris
Shape & HBR
Box + 1 Pan, 10.1 m
Radar Cross Section
11.087 m², Large (>1 m²)

Expand to show TLE details & history
Last TLE update: 9 hours ago

TLE from 9 hours ago
0 STARLINK-3749
1 52313U 22041BE  26130.12935115 -.00000245  00000-0  26645-5 0  9992
2 52313  53.2159 173.3053 0001148  88.2541 271.8583 15.08837180225144
Epoch: 2026-05-10T03:06Z
TLE epoch observation values (Epoch: 2026-05-10T03:06:15.939Z)
Latitude
0.00002°
Longitude
-101.19796°
Altitude
540.624 km
Speed
7.593 km/s
True Right ascension
11h 33m 13s
True Declination
0° 00' 00"
Sunlit
Object was in full shadow at epoch
Visualization orbit readout
Latitude
Unknown
Longitude
Unknown
Altitude
Unknown
Speed
Unknown
Apparent Right ascension
Unknown
Apparent Declination
Unknown
Sunlit
N/A
Visualization observer readout
Local Sidereal Time
20:36:21
Azimuth
Unknown
Elevation
Unknown
Doppler factor
Unknown
Orbital elements
Apogee altitude
540.791 km
Perigee altitude
539.203 km
Semi-major axis
6,918.134 km
Eccentricity
0.00011
Inclination
53.2159°
RAAN
173.3053°
Arg. of periapsis
88.2541°
True anomaly
271.84515°
Mean anomaly
271.8583°
Eccentric anomaly
271.85173°
Mean motion
3.7719 °/min
Orbital period
95.44 mins
BSTAR
0.0000026645
Loading maneuver chart data...
Computing Atmospheric mass density...
Loading historical data...
Loading historical data...
Loading historical data...
Loading historical data...
Loading historical data...
Loading historical data...
Loading historical data...

Documentation

Showing up to 5 results
|